Regional Weather Roundup
Issued by NWS New Orleans/Baton Rouge, LA

Home | Current Version | Previous Version | Text Only | Print | Product List | Glossary On
Versions: 1 2 3 4 5 6 7 8 9 10 11 12 13 14 15 16 17 18 19 20 21 22 23 24 25 26 27 28 29 30 31 32 33 34 35 36 37 38 39 40 41 42 43 44 45 46 47 48 49 50
000
ASUS44 KLIX 060211
RWRLIX
NEW ORLEANS REGIONAL WEATHER ROUNDUP
NATIONAL WEATHER SERVICE NEW ORLEANS LA
900 PM CDT TUE MAY 05 2015

NOTE: "FAIR" INDICATES FEW OR NO CLOUDS BELOW 12,000 FEET WITH NO
      SIGNIFICANT WEATHER AND/OR OBSTRUCTIONS TO VISIBILITY.
      SKY/WX - SKY CONDITION AND SIGNIFICANT WEATHER.
      TMP - AIR TEMPERATURE.     DP    - DEWPOINT TEMPERATURE.
      RH  - RELATIVE HUMIDITY.   PRES  - PRESSURE.
      HI  - HEAT INDEX.          WCI   - WIND CHILL INDEX.

*  THESE STATIONS ARE NOT NWS OR FAA STATIONS AND ARE NOT UNDER
   NWS QUALITY CONTROL.

LAZ038-040-048-061>063-065>067-069-060300-
SOUTHEAST LOUISIANA

CITY           SKY/WX    TMP DP  RH WIND       PRES   REMARKS
N.O. AUDUBON     N/A     73  64  72 MISG        N/A
N.O. INTL ARPT CLEAR     73  60  63 SE12      30.11R
N.O. LAKEFRONT CLEAR     74  62  66 SE14      30.12R
SLIDELL        CLEAR     70  62  76 E3        30.12R
BATON ROUGE    CLEAR     70  61  73 E6        30.10R
BOOTHVILLE     CLEAR     72  66  81 E7        30.12R
BELLE CHASSE   CLEAR     72  62  71 E10       30.11R
BOGALUSA*        N/A     73  57  58 CALM      30.14R
GALLIANO*      PTCLDY    74  63  66 CALM      30.11R
NEW ROADS*       N/A     73  56  56 E6        30.10R
GONZALES*        N/A     72  62  71 CALM      30.09S
HAMMOND*       CLEAR     72  59  64 SE5       30.13S
HOUMA*         CLEAR     71  63  75 E9        30.10R
PORT FOURCHON* PTCLDY    75  64  69 E14G22    30.13R

$$

MSZ070-080>082-060300-
SOUTHERN MISSISSIPPI

CITY           SKY/WX    TMP DP  RH WIND       PRES   REMARKS
MCCOMB         MOCLDY    71  59  65 SE8       30.12R
GULFPORT       CLEAR     73  63  70 SE8       30.13R
BILOXI         CLEAR     73  64  71 SE6       30.13R
PASCAGOULA     CLEAR     64  62  93 CALM      30.14R

$$

COASTAL OBSERVATIONS
LAKE AND NEARSHORE STATIONS

STATION/POSITION TIME  TEMP    WIND        PRES    WAVE
                       AIR SEA DIR/SP/G            HT/PER
                 (UTC) (F)     (DEG/KT/KT) (MB)    (FT/S)
PASCAGOULA       0100   74     140/  7/  8 1019.7
WAVELAND YACHT   0106   74 77  140/ 14/ 17 1019.8
GRAND ISLE       0100   74 77  100/ 13/ 18 1018.9
SOUTHWEST PASS   0100   74 67  100/ 19/ 21 1019.3
NEW CANAL        0100          130/  2/  6 1019.6
SHELL BEACH      0106   73 77  120/ 11/ 14 1019.0

OFFSHORE STATIONS

STATION/POSITION TIME  TEMP    WIND        PRES    WAVE
                       AIR SEA DIR/SP/G            HT/PER
                 (UTC) (F)     (DEG/KT/KT) (MB)    (FT/S)
64 S DAUPHIN ISL 0150   74 75  100/ 16/ 17 1020.0    5/ 7

$$



USA.gov is the U.S. government's official web portal to all federal, state and local government web resources and services.